Sisseton, SD

11:06 AM CDT on September 19, 2017 (GMT -0500)
Sisseton

Weather History for K8D3 - April, 2014

Change the Weather History Date:

Friday, April 4, 2014

  Actual Average Record
Temperature  
Mean Temperature 28 °F 39 °F  
Max Temperature 34 °F 50 °F 80 °F (2005)
Min Temperature 22 °F 28 °F 5 °F (1975)
Degree Days  
Heating Degree Days 37 26  
Month to date heating degree days 162 108  
Since 1 July heating degree days 8178 7450  
Cooling Degree Days 0 0  
Month to date cooling degree days 0 0  
Year to date cooling degree days 0 0  
Moisture  
Dew Point 27 °F    
Average Humidity 88    
Maximum Humidity 100    
Minimum Humidity 75    
Precipitation  
Precipitation 0.00 in 0.04 in 0.62 in (1968)
Month to date precipitation 0.42 0.14  
Year to date precipitation 1.88 2.12  
Snow  
Snow 0.00 in - - ()
Month to date snowfall 4.7  
Since 1 July snowfall 36.1  
Snow Depth 8.00 in    
Sea Level Pressure  
Sea Level Pressure 30.07 in    
Wind  
Wind Speed 15 mph (NNW)    
Max Wind Speed 26 mph    
Max Gust Speed 31 mph    
T = Trace of Precipitation, MM = Missing Value Source: NWS Daily Summary

Daily Weather History Graph

Daily Weather History Graph

Search for Another Location

Airport or City:

Trip Planner

Search our weather history database for the weather conditions in past years. The results will help you decide how hot, cold, wet, or windy it might be!

Date:

Astronomy

Apr. 04, 2014 Rise Set
Actual Time 7:02 AM CDT 8:00 PM CDT
Civil Twilight 6:32 AM CDT 8:30 PM CDT
Nautical Twilight 5:56 AM CDT 9:06 PM CDT
Astronomical Twilight 5:18 AM CDT 9:44 PM CDT
Moon 10:09 AM CDT (4/4) 12:30 AM CDT (4/4)
Length of Visible Light 13h 58m
Length of Day
12h 57m
Waxing Crescent, 25% of the Moon is Illuminated
Apr 4
Waxing Crescent
Apr 7
First Quarter
Apr 15
Full
Apr 22
Last Quarter
Apr 29
New

Hourly Weather History & Observations

Time (CDT) Temp. Windchill Dew Point Humidity Pressure Visibility Wind Dir Wind Speed Gust Speed Precip Events Conditions
12:56 AM 32.0 °F 20.8 °F 30.9 °F 96% 29.98 in - North 17.3 mph - N/A   Unknown
1:56 AM 32.0 °F 20.1 °F 30.9 °F 96% 29.97 in - North 19.6 mph - N/A   Unknown
2:56 AM 30.9 °F 17.8 °F 30.0 °F 96% 29.96 in - North 23.0 mph - N/A   Unknown
3:56 AM 30.9 °F 17.8 °F 28.9 °F 92% 29.98 in - North 23.0 mph - N/A   Unknown
4:56 AM 30.0 °F 16.9 °F 28.9 °F 96% 29.99 in - North 21.9 mph - N/A   Unknown
5:56 AM 28.9 °F 15.4 °F 28.0 °F 96% 30.00 in - North 21.9 mph - N/A   Unknown
6:56 AM 28.9 °F 15.4 °F 27.0 °F 92% 30.02 in - North 21.9 mph - N/A   Unknown
7:56 AM 28.9 °F 15.1 °F 27.0 °F 92% 30.05 in - North 23.0 mph - N/A   Unknown
8:56 AM 28.0 °F 13.9 °F 26.1 °F 92% 30.06 in - North 23.0 mph - N/A   Unknown
9:56 AM 28.0 °F 13.9 °F 26.1 °F 92% 30.08 in - NNW 23.0 mph - N/A   Unknown
10:56 AM 27.0 °F 13.5 °F 25.0 °F 92% 30.09 in - North 19.6 mph - N/A   Unknown
11:56 AM 28.9 °F 14.8 °F 25.0 °F 85% 30.10 in - NNW 24.2 mph - N/A   Unknown
12:56 PM 30.0 °F 17.9 °F 26.1 °F 85% 30.09 in - NNW 18.4 mph - N/A   Unknown
1:56 PM 30.9 °F 19.8 °F 27.0 °F 85% 30.09 in - North 16.1 mph - N/A   Unknown
2:56 PM 30.9 °F 20.7 °F 26.1 °F 82% 30.10 in - NNW 13.8 mph - N/A   Unknown
3:56 PM 33.1 °F 23.4 °F 27.0 °F 78% 30.09 in - North 13.8 mph - N/A   Unknown
4:56 PM 34.0 °F 25.5 °F 27.0 °F 75% 30.09 in - NNW 11.5 mph - N/A   Unknown
5:56 PM 33.1 °F 25.5 °F 26.1 °F 75% 30.11 in - NNW 9.2 mph 20.7 mph N/A   Unknown
6:56 PM 33.1 °F 26.1 °F 26.1 °F 75% 30.11 in - North 8.1 mph - N/A   Unknown
7:56 PM 30.0 °F 23.2 °F 25.0 °F 82% 30.12 in - NNW 6.9 mph - N/A   Unknown
8:56 PM 28.0 °F - 25.0 °F 88% 30.13 in - Calm Calm - N/A   Unknown
9:56 PM 27.0 °F 23.0 °F 24.1 °F 89% 30.12 in - South 3.5 mph - N/A   Unknown
10:56 PM 23.0 °F 15.8 °F 21.0 °F 92% 30.12 in - SSW 5.8 mph - N/A   Unknown
11:56 PM 23.0 °F 14.7 °F 21.9 °F 96% 30.12 in - SSW 6.9 mph - N/A   Unknown